Regional Weather Roundup
Issued by NWS

Home | Current Version | Previous Version | Graphics & Text | Print | Product List | Glossary On
Versions: 1 2 3 4 5 6 7 8 9 10 11 12 13 14 15 16 17 18 19 20 21 22 23 24 25 26 27 28 29 30 31 32 33 34 35 36 37 38 39 40 41 42 43 44 45 46 47 48 49 50
000
ASUS43 KLMK 261902
RWRKY
KENTUCKY REGIONAL WEATHER ROUNDUP
NATIONAL WEATHER SERVICE LOUISVILLE KY
300 PM EDT THU MAY 26 2016

NOTE "FAIR" INDICATES FEW OR NO CLOUDS BELOW 12,000 FEET
WITH NO SIGNIFICANT WEATHER AND/OR OBSTRUCTIONS TO VISIBILITY.

KYZ001>023-026-027-061>063-070>075-262000-
WESTERN AND SOUTH CENTRAL KENTUCKY

CITY           SKY/WX    TMP DP  RH WIND       PRES   REMARKS
PADUCAH        CLOUDY    70  63  78 NE12      30.02F THUNDER
HENDERSON      PTSUNNY   70  63  78 S3        30.04S
OWENSBORO      CLOUDY    69  67  93 E7        30.03F
HOPKINSVILLE   MOSUNNY   85  73  67 SW9G17    30.00F HX  92
BOWLING GREEN  CLOUDY    74  67  78 VRB3G18   30.04S THUNDER
GLASGOW        NOT AVBL
$$

KYZ024-025-028>034-038-045-046-053-262000-
NORTH CENTRAL KENTUCKY

CITY           SKY/WX    TMP DP  RH WIND       PRES   REMARKS
LOUISVILLE/SDF LGT RAIN  68  64  87 N6        30.07F
LOUISVILLE/LOU LGT RAIN  67  64  90 NW3       30.08S FOG
FORT KNOX      LGT RAIN  65  63  92 VRB6      30.06F
$$

KYZ035>037-039>044-047>052-055>060-089>105-262000-
NORTHEAST KENTUCKY

CITY           SKY/WX    TMP DP  RH WIND       PRES   REMARKS
LEXINGTON      CLOUDY    79  67  66 S12       30.07F
COVINGTON      CLOUDY    79  68  69 S8        30.03F
FRANKFORT      MOSUNNY   83  68  60 S10       30.04F
$$

KYZ054-064>069-076>088-106>120-262000-
SOUTHEAST KENTUCKY

CITY           SKY/WX    TMP DP  RH WIND       PRES   REMARKS
JACKSON        PTSUNNY   75  63  66 VRB6      30.13F
LONDON         CLOUDY    73  64  73 S7        30.12F
SOMERSET       NOT AVBL
MIDDLESBORO    NOT AVBL
MONTICELLO     MOCLDY    78  71  79 E7        30.10F
$$




USA.gov is the U.S. government's official web portal to all federal, state and local government web resources and services.